NOAA 16 DEB, 41074

Orbit data source: Space-Track

NOAA 16 DEB, 41074 is space debris in SSO originally from a launch on Thu, 21 Sep 2000 UTC launched from the Air Force Western Test Range (AFWTR). Debris objects in space refer to the collection of defunct objects orbiting the Earth. Examples of debris include non-operational satellites, rocket bodies, and fragments generated from explosions, collisions, or faulty payload assembly.

Loading next visibility...
Identifier
41074, 2000-055AH
Orbit
SSO
Last TLE update
2 days ago
Origin
Manufacturer
Unknown
Mission
Spacecraft
Bus & Motor
Unknown
Mass
Unknown
Launch date (UTC)
2000-09-21 (25 years ago)
Launch vehicle
Unknown
Launch site
Air Force Western Test Range (AFWTR)
Object type
Payload
Rocket body
Debris
Shape & HBR
Unknown
Radar Cross Section
Small (<0.1 m²)

Expand to show TLE details & history

TLE from 2 days ago
0 NOAA 16 DEB
1 41074U 00055AH  25118.90232906  .00003807  00000-0  10599-2 0  9998
2 41074  98.8688 287.7093 0086355  11.0406 349.2652 14.44820937493683
Epoch: 2025-04-28T21:39Z
Definitive object data (Epoch: 2025-04-28T21:39:21.23Z)
Latitude
-0.0001°
Longitude
105.76117°
Altitude
685.149 km
Speed
7.546 km/s
True Right ascension
19h 10m 50s
True Declination
0° 00' 00"
Sunlit
Object was in daylight at TLE epoch
Visualization TLE readout
Latitude
52.57588°
Longitude
-60.92177°
Altitude
781.629 km
Speed
7.452 km/s
Apparent Right ascension
07h 10m 04s
Apparent Declination
9° 59' 51"
Sunlit
Object is in daylight
Visualization observer readout
Local Sidereal Time
18:22:04
Azimuth
344.758° N
Elevation
-38.862°
Doppler factor
1
Orbital elements
Apogee altitude
801.214 km
Perigee altitude
678.281 km
Semi-major axis
7,117.884 km
Eccentricity
0.0086355
Inclination
98.8688°
RAAN
287.7093°
Arg. of periapsis
11.0406°
True anomaly
349.07891°
Mean anomaly
349.2652°
Eccentric anomaly
349.17225°
Mean motion
3.61424 °/min
BSTAR
0.0010599
Orbital period
99.61 mins
Loading maneuver chart data...
Loading SW <> Apogee altitude chart data...
Loading historical data...
Loading historical data...
Loading historical data...
Loading historical data...
Loading historical data...
Loading historical data...
Loading historical data...

NOAA 16 DEB Visibility forecast

Observer location: undefined°, undefined°

Span
Click to sort rows by Start time (UTC) header in descending order
Start Az.
Max El. time (UTC)
Max El. Az.
Max El.
End time (UTC)
End Az.
7 mins2025-04-30 12:00:00.840Z209.002° SW2025-04-30 12:03:00.840Z253.006° W23.929°2025-04-30 12:07:00.840Z318.228° NNW
8 mins2025-05-01 00:06:00.840Z16.633° NNE2025-05-01 00:09:00.840Z38.124° NE43.912°2025-05-01 00:14:00.840Z192.168° SSW
|